SCP
1 1 1 1 1 2 2 2 2 2 2 2 1 1 1 2 2 2 1 1 1 1 1 1 1 1 1 1 1 1 1 1 1 0 0 0 0 0 0 0 0 0 0
1 1 1 1 1 2 2 2 2 2 1 1 1 1 1 1 1 1 1 1 1 1 1 1 1 1 1 1 1 1 1 1 0 0 0 0 0 0 0 0 0 0 0
0 1 1 1 1 1 1 1 1 1 1 1 1 1 1 1 1 1 1 1 1 1 1 1 1 1 1 0 0 0 0 0 0 0 0 0 0 0 0 0 0 0 0
0 0 1 1 1 1 1 1 1 1 1 1 1 1 1 1 1 1 1 1 1 1 1 1 1 0 0 0 0 0 0 0 0 0 0 0 0 0 0 0 0 0 0
0 0 0 0 1 1 1 1 1 1 1 1 1 1 1 1 1 1 1 1 1 1 1 1 1 0 0 0 0 0 0 0 0 0 0 0 0 0 0 0 0 0 0
1 0 0 0 0 0 0 0 0 1 1 1 1 1 1 1 1 1 1 1 1 1 1 1 1 0 0 0 0 0 1 1 0 0 0 0 0 0 0 0 0 0 0
1 1 0 0 0 0 0 0 0 0 0 0 0 0 0 0 1 1 1 1 1 1 1 1 1 1 0 1 1 1 1 1 1 0 0 0 0 0 0 0 0 0 0
2 1 1 0 0 0 0 0 0 0 0 0 0 0 0 0 0 0 0 0 0 0 0 0 0 0 0 1 1 1 1 1 0 0 0 0 0 0 0 0 0 0 0
2 2 1 1 1 0 0 0 0 0 0 0 0 0 0 0 0 0 0 0 0 0 0 0 0 0 0 0 0 1 1 1 0 0 0 0 0 0 0 0 0 0 0
3 2 1 1 1 1 0 0 0 0 0 0 0 0 0 0 0 0 0 0 0 0 0 0 0 0 0 0 0 1 1 1 0 0 0 0 0 0 0 0 0 0 0
3 3 2 2 1 1 0 0 0 0 0 0 0 0 0 0 0 0 1 1 0 0 0 0 0 0 0 0 0 1 1 0 0 1 0 0 0 0 0 0 0 0 0
3 3 4 3 2 1 1 1 0 0 0 0 0 0 0 0 0 1 1 1 1 0 0 0 0 0 0 0 0 1 0 0 0 1 0 0 0 0 0 0 0 0 0
4 4 5 5 3 2 1 1 1 1 1 0 0 0 0 0 1 1 1 1 1 0 0 0 0 0 0 0 0 1 0 0 0 0 0 0 0 0 0 0 0 0 0
4 4 5 5 4 2 2 2 1 1 1 1 1 1 0 0 1 1 1 1 1 1 1 1 1 1 0 0 0 0 0 0 0 0 0 0 0 0 0 0 0 0 0
4 4 5 5 4 3 3 2 2 2 1 1 1 1 1 0 0 1 1 1 1 1 1 1 1 0 0 0 0 0 0 1 1 1 1 1 1 0 0 0 0 0 0
4 5 6 6 5 4 4 3 3 2 2 1 1 1 1 1 1 1 1 1 1 1 1 1 1 1 0 0 0 0 1 1 1 1 1 1 1 1 0 0 0 0 0
4 6 8 7 6 5 4 4 3 2 2 1 2 2 2 1 1 1 1 1 1 1 1 1 1 1 1 0 0 0 1 1 1 1 1 1 1 1 1 1 1 1 1
5 7 9 8 7 5 4 4 3 2 2 1 2 2 2 2 1 1 1 1 1 1 1 1 1 1 1 1 1 1 1 1 1 1 1 1 1 1 1 1 1 1 1
6 7 8 8 7 5 4 4 4 3 2 2 2 2 2 2 2 1 1 1 1 1 1 1 1 1 1 1 1 0 1 1 1 1 1 1 1 2 2 2 1 1 1
7 7 7 7 6 5 5 5 4 3 2 2 2 2 2 2 2 1 1 2 2 1 1 1 1 1 1 1 1 1 1 1 1 1 1 1 1 2 2 2 3 2 2
8 7 6 5 5 5 5 5 5 3 2 2 2 3 3 3 2 1 2 3 3 2 1 1 2 2 1 1 1 1 1 1 1 1 1 1 2 2 2 3 3 4 3
7 6 5 5 5 5 5 5 4 3 2 2 3 3 4 3 2 2 2 4 4 3 2 2 2 2 2 2 2 1 1 1 1 1 1 2 2 2 2 2 3 4 4
6 5 5 5 5 5 5 4 4 3 2 2 3 4 4 4 3 2 3 4 4 3 2 2 3 3 4 4 3 2 1 1 1 1 1 1 2 2 2 2 2 2 3
5 5 5 5 5 5 5 4 4 3 3 3 3 4 4 4 3 3 3 4 5 4 3 3 3 4 4 5 4 3 2 1 1 1 1 1 1 1 2 1 1 2 2
5 5 5 6 5 5 5 5 5 5 4 4 4 4 4 4 4 3 3 4 4 4 3 3 3 4 4 5 4 3 2 2 1 1 1 1 1 1 1 1 1 1 2
5 5 5 6 6 6 6 6 6 7 6 4 4 4 4 4 3 3 3 4 4 3 3 3 4 4 5 4 4 3 3 3 2 1 1 1 1 1 1 1 1 2 2
Wind_Speed
11 12 14 14 15 15 15 15 16 16 16 16 15 15 15 16 16 16 16 15 15 15 16 15 15 16 17 17 17 17 17 17 17 18 18 17 15 14 13 15 16 13 17
14 13 14 14 14 14 14 15 15 15 15 15 15 15 15 15 16 16 15 15 15 16 16 16 16 17 17 16 16 15 15 15 16 17 18 16 15 14 13 14 15 12 16
15 13 14 14 14 14 14 15 15 15 15 15 15 15 15 15 15 16 16 16 16 17 17 16 17 17 16 15 14 13 13 13 13 15 15 11 12 14 15 17 17 16 15
15 13 14 15 14 14 14 14 14 14 14 15 15 15 15 15 15 16 16 16 17 17 17 17 17 16 15 13 12 11 10 10 10 9 7 10 10 14 15 16 15 15 15
16 15 15 16 15 15 14 14 13 14 14 14 15 15 15 15 16 16 17 17 17 17 17 16 16 15 13 11 9 8 6 5 5 6 8 10 9 13 14 15 14 14 14
17 16 15 15 15 14 14 13 13 14 14 14 14 15 15 15 16 16 16 16 16 16 16 16 15 13 11 9 7 5 4 2 2 7 9 10 8 12 14 14 14 14 13
17 15 14 15 14 14 14 14 13 14 14 14 14 14 15 15 15 16 16 16 15 15 15 14 14 12 10 8 6 4 3 3 3 8 9 9 9 12 13 13 13 13 12
18 16 14 15 15 14 14 13 13 13 13 14 14 14 14 14 15 15 15 15 15 14 14 13 12 10 8 6 4 3 3 3 6 11 11 9 11 12 13 13 12 12 12
17 15 13 13 13 13 13 13 13 13 13 13 13 13 14 14 14 14 14 14 13 13 12 12 11 9 7 4 3 3 4 5 4 7 11 8 11 12 13 12 12 12 12
14 13 13 12 11 11 11 12 13 12 12 12 12 12 13 13 14 14 13 12 12 11 11 10 9 8 6 3 1 3 4 4 4 9 8 9 12 12 12 12 11 11 11
12 11 12 12 11 11 11 12 11 11 10 10 9 11 10 7 9 9 12 11 11 10 9 9 8 6 4 2 2 3 3 1 6 7 7 12 12 12 12 11 11 10 10
10 10 10 10 10 10 9 8 7 7 7 5 5 6 4 3 6 10 11 11 9 8 7 7 7 5 4 2 4 4 2 2 6 7 8 14 12 12 11 11 10 10 10
9 9 9 7 6 8 7 6 4 4 4 4 5 5 4 4 6 7 5 6 5 6 4 6 6 4 3 1 1 2 1 3 4 6 9 13 12 12 11 10 10 9 9
9 9 9 8 5 4 5 5 5 4 4 4 4 4 4 2 3 4 3 4 4 2 3 3 2 2 2 1 1 1 3 3 5 6 7 12 11 11 11 10 9 9 8
9 9 8 7 6 4 3 2 4 4 5 5 3 3 4 3 3 3 2 2 2 2 2 2 1 2 2 1 2 2 2 3 5 7 6 11 11 10 10 10 9 9 9
11 10 9 8 7 4 3 1 2 4 4 4 3 4 3 3 3 3 2 1 1 1 2 1 2 2 1 1 1 1 1 2 4 7 7 8 11 11 10 10 10 10 9
11 10 9 8 8 5 4 3 3 4 5 4 4 4 3 3 4 3 3 2 2 2 2 1 1 1 1 2 1 1 1 1 2 4 7 6 7 10 11 11 11 10 10
11 10 9 9 10 6 4 2 1 2 4 4 4 4 3 3 3 3 2 2 2 2 2 2 1 1 1 1 1 1 2 2 3 3 4 5 6 7 10 13 12 11 11
10 10 8 7 9 8 6 3 2 2 2 2 3 4 4 4 4 2 1 2 2 2 2 2 2 1 1 1 2 2 2 2 3 4 4 5 6 6 7 11 14 13 13
11 10 8 7 7 7 5 3 2 2 2 2 2 4 5 4 4 2 2 3 3 2 1 1 2 0 1 2 3 2 2 3 3 4 5 5 5 7 8 9 9 10 15
11 10 9 8 8 6 5 5 4 3 3 3 3 5 5 4 4 3 2 3 2 2 2 2 2 2 2 2 2 1 2 3 4 4 4 4 5 6 6 8 8 7 8
12 11 10 9 9 7 5 4 3 3 3 4 3 5 5 5 4 5 4 3 3 2 3 3 2 2 2 2 1 1 2 2 3 5 4 4 5 4 5 8 7 7 6
14 13 11 10 10 9 7 5 4 3 2 3 3 4 5 5 5 4 4 4 3 3 3 3 3 4 3 2 2 2 2 2 2 2 4 4 4 4 5 4 7 8 8
13 13 11 10 10 9 7 7 7 5 4 4 3 4 5 5 5 5 5 4 3 3 3 4 4 3 4 3 3 3 3 2 1 2 2 3 4 5 5 6 7 7 8
14 13 12 11 10 9 8 7 6 6 4 3 4 4 5 4 5 5 5 4 4 3 3 4 3 4 3 4 3 2 3 3 4 3 3 3 3 3 5 6 5 5 7
13 12 12 12 10 9 9 8 7 7 5 4 4 4 4 3 4 5 5 4 4 3 4 4 4 5 4 4 4 3 3 3 3 4 4 3 3 4 4 4 5 4 5
Wind_Direction
93 93 92 89 87 87 88 89 90 89 88 88 88 88 89 90 91 95 96 98 100 100 100 101 100 98 97 96 97 98 98 99 102 101 100 98 97 100 106 110 106 101 103
100 98 96 92 90 90 89 90 90 90 90 89 89 89 91 92 92 95 97 98 100 101 101 101 99 99 98 99 100 102 104 107 110 110 106 98 94 94 97 99 100 106 108
104 103 98 93 93 92 91 92 93 92 91 90 89 89 90 93 94 95 96 95 99 101 100 100 99 99 99 100 103 107 110 115 121 124 117 104 97 93 95 99 103 108 109
110 107 100 98 95 93 93 93 93 94 94 93 91 90 90 93 95 96 97 95 96 100 99 99 99 100 101 103 107 111 116 125 136 135 114 103 100 98 100 104 107 109 110
107 103 103 102 98 97 97 96 97 96 95 95 93 91 90 92 93 93 94 94 95 98 98 98 98 99 101 104 105 105 111 124 130 108 92 92 94 104 105 106 108 110 111
109 106 107 107 104 101 101 100 99 98 96 95 94 94 93 93 93 93 94 95 95 96 96 96 98 100 98 98 95 89 81 72 82 100 100 101 102 108 109 109 109 110 111
110 110 111 110 107 105 102 102 100 99 100 100 99 97 95 95 95 95 96 98 97 96 97 98 99 98 96 91 81 64 42 19 106 98 94 98 105 111 110 110 111 112 112
115 114 114 112 110 108 105 104 104 103 102 102 102 101 100 100 99 99 99 99 99 99 99 100 100 99 96 85 65 37 12 0 100 105 102 103 113 113 112 112 112 112 113
118 122 124 122 116 112 109 109 110 108 107 108 109 109 109 107 105 103 101 101 101 102 104 105 105 104 100 87 53 11 1 358 90 112 110 110 117 117 117 116 115 115 115
122 128 129 128 129 128 119 116 116 116 116 117 120 120 118 116 115 113 108 104 104 107 111 114 114 113 110 102 34 339 339 346 102 101 105 118 123 123 122 122 120 119 120
123 129 131 134 141 135 129 127 129 128 128 132 133 136 140 136 127 123 110 114 114 116 120 126 126 130 139 171 250 284 305 234 93 96 103 124 129 127 127 127 126 127 126
128 131 129 138 144 138 132 139 146 139 144 150 135 151 162 127 118 117 123 125 127 129 133 144 149 162 195 197 214 235 245 143 107 106 118 131 131 132 132 133 132 132 132
138 133 129 128 131 133 132 148 137 125 140 141 143 153 153 133 127 127 137 139 147 157 162 153 173 196 204 209 210 194 131 89 95 106 128 135 136 138 138 139 142 142 142
147 137 131 123 111 109 125 132 140 139 144 143 160 164 135 124 122 130 141 157 162 170 163 169 186 175 144 119 57 56 63 90 106 114 137 142 144 146 149 151 151 153 154
148 137 127 125 117 103 93 130 132 134 138 139 147 131 140 136 132 132 128 144 164 154 155 153 140 103 91 67 47 51 71 87 118 125 136 153 155 158 162 165 165 168 169
155 146 137 138 129 125 131 121 121 127 119 133 140 136 145 122 126 128 141 154 143 121 107 103 119 121 116 88 88 75 94 94 110 131 143 160 168 170 175 178 179 181 181
158 149 145 148 142 151 161 178 156 146 147 142 133 137 144 134 132 141 150 177 151 128 123 121 124 131 166 157 157 169 130 118 123 131 153 162 173 184 186 187 188 190 192
154 148 160 163 151 159 173 206 183 155 137 141 142 146 149 134 151 161 164 158 143 144 152 144 189 162 160 149 172 208 166 165 168 171 169 170 173 180 191 196 196 198 201
151 150 162 153 152 162 170 182 217 122 122 139 146 146 153 162 167 178 145 126 148 155 176 192 151 173 178 208 215 206 198 192 192 199 188 184 183 174 179 194 199 202 206
153 152 160 158 155 162 167 172 219 169 161 167 155 151 156 170 175 175 157 162 175 175 173 143 122 169 257 251 259 222 229 204 206 204 202 196 190 191 187 182 190 206 212
158 158 165 170 164 170 174 178 191 186 182 179 183 162 164 177 176 184 197 167 193 184 169 171 160 206 237 243 260 267 255 235 221 213 207 201 200 204 190 177 185 195 203
163 166 171 178 172 181 181 182 186 183 187 188 189 160 168 181 187 192 195 195 192 184 189 200 191 222 246 230 222 243 264 258 250 231 202 197 205 206 203 195 193 194 196
173 175 180 180 176 187 181 181 196 180 209 197 175 167 183 186 194 211 187 204 199 193 196 205 205 213 235 244 225 214 234 242 255 249 227 208 200 199 204 204 207 201 202
178 178 178 176 177 183 185 192 195 192 199 201 186 179 188 195 198 202 198 201 204 210 200 213 210 217 223 241 240 232 241 252 237 268 273 235 218 212 213 216 217 203 202
181 179 177 176 180 180 188 194 201 203 202 200 194 184 187 194 205 207 201 199 204 217 214 222 221 221 227 238 247 244 240 243 232 228 252 258 241 226 222 222 220 208 201
180 179 178 175 180 180 191 195 200 206 205 205 202 190 195 203 206 207 203 198 207 218 223 221 224 226 231 242 255 258 241 234 233 231 236 248 251 246 234 229 218 208 199